Location: Unspecified
(0.0000°N, 0.0000°E)
Time: 05:20:10
(UTC+00:00)

Explorer 7 - Pass Details

Date: 07 October 2020
Orbit: 484 x 678 km, 50.3° (Epoch: 28 October)

Event Time Altitude Azimuth Distance (km) Brightness Sun altitude
Rises 06:38:48 0° 322° (NW) 3,012 10.2 12.7°
Reaches altitude 10° 06:41:10 10° 322° (NW) 2,094 9.4 13.3°
Maximum altitude 06:46:02 86° 235° (SW) 664 7.5 14.5°
Drops below altitude 10° 06:50:45 10° 145° (SE) 2,027 10.4 15.7°
Sets 06:53:01 0° 144° (SE) 2,910 11.2 16.2°
